DW2891 Weather Reports


Display with metric or nautical units.
time (UTC)temp
F
wind
direction
speed
MPH
gust
MPH
rain 1hr
in
rain 24hr
in
rain mn
in
humidity
%
barometer
mb
20260508170103 59 309 6.0 10.0 0.00 0.00 0.00 66 1016.5
20260508165604 59 298 0.0 0.0 0.00 0.00 0.00 69 1016.5
20260508165104 59 298 0.0 0.0 0.00 0.00 0.00 71 1016.5
20260508164605 58 298 0.0 0.0 0.00 0.00 0.00 72 1016.5
20260508164104 57 298 0.0 0.0 0.00 0.00 0.00 74 1016.4
20260508163604 57 298 0.0 0.0 0.00 0.00 0.00 72 1016.3
20260508163104 57 298 2.0 6.0 0.00 0.00 0.00 73 1016.3
20260508162605 57 7 0.0 1.0 0.00 0.00 0.00 74 1016.2
20260508162104 57 9 0.0 0.0 0.00 0.00 0.00 73 1016.2
20260508160103 56 82 0.0 0.0 0.00 0.00 0.00 75 1016.0
20260508155604 55 82 0.0 0.0 0.00 0.00 0.00 77 1015.9
20260508154605 55 82 0.0 0.0 0.00 0.00 0.00 76 1015.8
20260508154104 55 82 0.0 0.0 0.00 0.00 0.00 80 1015.7
20260508153604 55 82 0.0 0.0 0.00 0.00 0.00 83 1015.8
20260508152605 54 82 0.0 0.0 0.00 0.00 0.00 87 1015.7
20260508152104 54 82 0.0 0.0 0.00 0.00 0.00 88 1015.5
20260508151604 54 82 0.0 0.0 0.00 0.00 0.00 88 1015.7
20260508151104 53 82 0.0 0.0 0.00 0.00 0.00 88 1015.6
20260508150605 53 82 0.0 0.0 0.00 0.00 0.00 89 1015.5
20260508150104 53 82 0.0 0.0 0.00 0.00 0.00 89 1015.6
20260508145104 52 82 0.0 0.0 0.00 0.00 0.00 89 1015.5
20260508144603 52 82 0.0 0.0 0.00 0.00 0.00 90 1015.5
20260508143604 51 82 0.0 0.0 0.00 0.00 0.00 90 1015.3
20260508143104 51 82 0.0 0.0 0.00 0.00 0.00 90 1015.2
20260508142604 51 82 0.0 0.0 0.00 0.00 0.00 90 1015.2
20260508142104 50 82 0.0 0.0 0.00 0.00 0.00 90 1015.2
20260508141603 50 82 0.0 0.0 0.00 0.00 0.00 90 1015.2
20260508135103 49 82 0.0 0.0 0.00 0.00 0.00 91 1015.0
20260508134604 49 82 0.0 0.0 0.00 0.00 0.00 91 1015.0
20260508134104 49 82 0.0 0.0 0.00 0.00 0.00 91 1014.9
20260508133604 49 82 0.0 0.0 0.00 0.00 0.00 92 1015.0
20260508133104 49 82 0.0 0.0 0.00 0.00 0.00 92 1015.0
20260508132104 50 82 0.0 0.0 0.00 0.00 0.00 92 1015.0
20260508131604 50 82 0.0 0.0 0.00 0.00 0.00 92 1014.9
20260508131104 50 82 0.0 0.0 0.00 0.00 0.00 92 1014.8
20260508130604 50 82 0.0 0.0 0.00 0.00 0.00 92 1014.7
20260508130104 50 82 0.0 0.0 0.00 0.00 0.00 92 1014.7
20260508125605 50 82 0.0 0.0 0.00 0.00 0.00 92 1014.7
20260508125103 50 82 0.0 0.0 0.00 0.00 0.00 92 1014.7
20260508124104 50 74 0.0 0.0 0.00 0.00 0.00 91 1014.7
20260508123604 50 34 0.0 0.0 0.00 0.00 0.00 91 1014.7
20260508123104 51 61 0.0 0.0 0.00 0.00 0.00 91 1014.8
20260508121605 51 94 0.0 0.0 0.00 0.00 0.00 91 1014.8
20260508121103 51 94 0.0 0.0 0.00 0.00 0.00 91 1014.8
20260508120104 51 94 0.0 0.0 0.00 0.00 0.00 90 1014.6
20260508115605 51 94 0.0 0.0 0.00 0.00 0.00 90 1014.7
20260508115104 51 94 0.0 0.0 0.00 0.00 0.00 90 1014.7
20260508114604 51 94 0.0 0.0 0.00 0.00 0.00 90 1014.8
20260508114103 51 94 0.0 0.0 0.00 0.00 0.00 90 1014.7
20260508113604 52 94 0.0 0.0 0.00 0.00 0.00 90 1014.8
20260508113104 52 94 0.0 0.0 0.00 0.00 0.00 89 1014.5
20260508112104 52 94 0.0 0.0 0.00 0.00 0.00 89 1014.3
20260508111605 52 94 0.0 0.0 0.00 0.00 0.00 89 1014.3
20260508111104 52 94 0.0 0.0 0.00 0.00 0.00 89 1014.3
20260508110604 52 94 0.0 0.0 0.00 0.00 0.00 89 1014.4
20260508110104 52 94 0.0 0.0 0.00 0.00 0.00 89 1014.5
20260508105104 52 94 0.0 0.0 0.00 0.00 0.00 89 1014.4
20260508104604 52 94 0.0 0.0 0.00 0.00 0.00 88 1014.4
20260508104105 52 94 0.0 0.0 0.00 0.00 0.00 88 1014.4
20260508103603 53 94 0.0 0.0 0.00 0.00 0.00 88 1014.4
20260508103104 53 94 0.0 0.0 0.00 0.00 0.00 88 1014.3
20260508102604 53 94 0.0 0.0 0.00 0.00 0.00 88 1014.4
20260508102105 53 94 0.0 0.0 0.00 0.00 0.00 88 1014.5
20260508101604 53 94 0.0 0.0 0.00 0.00 0.00 88 1014.5
20260508101104 53 94 0.0 0.0 0.00 0.00 0.00 88 1014.5
20260508100604 53 94 0.0 0.0 0.00 0.00 0.00 88 1014.6
20260508100104 53 94 0.0 0.0 0.00 0.00 0.00 88 1014.6
20260508095603 53 94 0.0 0.0 0.00 0.00 0.00 88 1014.6
20260508095103 53 94 0.0 0.0 0.00 0.00 0.00 88 1014.5
20260508094604 53 94 0.0 0.0 0.00 0.00 0.00 88 1014.6
20260508094105 53 94 0.0 0.0 0.00 0.00 0.00 87 1014.6
20260508093604 53 94 0.0 0.0 0.00 0.00 0.00 87 1014.6
20260508093103 53 94 0.0 0.0 0.00 0.00 0.00 87 1014.6
20260508092604 53 94 0.0 0.0 0.00 0.00 0.00 87 1014.6
20260508092105 53 94 0.0 0.0 0.00 0.00 0.00 87 1014.7
20260508091604 53 94 0.0 0.0 0.00 0.00 0.00 87 1014.7
20260508091104 53 94 0.0 0.0 0.00 0.00 0.00 86 1014.7
20260508090104 53 94 0.0 0.0 0.00 0.00 0.00 86 1014.7
20260508085604 53 94 0.0 0.0 0.00 0.00 0.00 86 1014.7
20260508085103 54 94 0.0 0.0 0.00 0.00 0.00 85 1014.7
20260508084603 54 94 0.0 0.0 0.00 0.00 0.00 85 1014.6
20260508084104 54 94 0.0 0.0 0.00 0.00 0.00 85 1014.7
20260508083604 54 94 0.0 0.0 0.00 0.00 0.00 85 1014.5
20260508082604 54 94 0.0 0.0 0.00 0.00 0.00 85 1014.7
20260508082105 54 94 0.0 0.0 0.00 0.00 0.00 85 1014.6
20260508081603 54 94 0.0 0.0 0.00 0.00 0.00 85 1014.6
20260508081104 54 94 0.0 0.0 0.00 0.00 0.00 85 1014.6
20260508080604 54 94 0.0 0.0 0.00 0.00 0.00 84 1014.7
20260508075604 54 94 0.0 0.0 0.00 0.00 0.00 84 1014.7
20260508075104 54 94 0.0 0.0 0.00 0.00 0.00 84 1014.8
20260508074604 54 94 0.0 0.0 0.00 0.00 0.00 84 1014.7
20260508074104 55 94 0.0 0.0 0.00 0.00 0.00 84 1014.8
20260508073103 55 94 0.0 0.0 0.00 0.00 0.00 84 1014.8
20260508072603 54 94 0.0 0.0 0.00 0.00 0.00 84 1014.7
20260508071104 54 94 0.0 0.0 0.00 0.00 0.00 84 1014.8
20260508070604 54 94 0.0 0.0 0.00 0.00 0.00 84 1014.9
20260508070104 54 94 0.0 0.0 0.00 0.00 0.00 84 1014.9
20260508065104 54 94 0.0 0.0 0.00 0.00 0.00 83 1014.9
20260508064604 54 94 0.0 0.0 0.00 0.00 0.00 84 1015.0
20260508064104 54 94 0.0 0.0 0.00 0.00 0.00 83 1014.9
20260508063604 54 94 0.0 0.0 0.00 0.00 0.00 83 1014.9
20260508062603 54 94 0.0 0.0 0.00 0.00 0.00 83 1014.9
20260508062104 54 94 0.0 0.0 0.00 0.00 0.00 84 1014.9
20260508061604 54 94 0.0 0.0 0.00 0.00 0.00 84 1014.8
20260508061104 54 94 0.0 0.0 0.00 0.00 0.00 84 1014.8
20260508060604 53 94 0.0 0.0 0.00 0.00 0.00 83 1014.8
20260508060104 53 94 0.0 0.0 0.00 0.00 0.00 83 1014.9
20260508053603 53 94 0.0 0.0 0.00 0.00 0.00 82 1015.0
20260508053104 53 94 0.0 0.0 0.00 0.00 0.00 82 1015.0
20260508052604 53 94 0.0 0.0 0.00 0.00 0.00 82 1015.0
20260508052104 53 94 0.0 0.0 0.00 0.00 0.00 81 1014.9
20260508051604 53 94 0.0 0.0 0.00 0.00 0.00 81 1014.9
20260508051104 53 94 0.0 0.0 0.00 0.00 0.00 81 1015.0
20260508050603 53 94 0.0 0.0 0.00 0.00 0.00 81 1015.1
20260508050103 53 94 0.0 0.0 0.00 0.00 0.00 80 1015.2
20260508045604 53 94 0.0 0.0 0.00 0.00 0.00 79 1015.1
20260508045103 53 94 0.0 0.0 0.00 0.00 0.00 79 1015.0
20260508044603 54 94 0.0 0.0 0.00 0.00 0.00 79 1015.0
20260508043603 54 94 0.0 0.0 0.00 0.00 0.00 78 1015.0
20260508043104 54 94 0.0 0.0 0.00 0.00 0.00 78 1014.8
20260508042604 54 94 0.0 0.0 0.00 0.00 0.00 77 1014.9
20260508042104 55 94 0.0 0.0 0.00 0.00 0.00 78 1014.9
20260508041604 55 94 0.0 0.0 0.00 0.00 0.00 77 1015.0
20260508041104 55 94 0.0 0.0 0.00 0.00 0.00 77 1014.9
20260508035105 56 94 0.0 0.0 0.00 0.00 0.00 76 1014.9
20260508034605 56 94 0.0 0.0 0.00 0.00 0.00 76 1014.9
20260508034105 57 94 0.0 0.0 0.00 0.00 0.00 77 1014.9
20260508033605 57 94 0.0 0.0 0.00 0.00 0.00 77 1014.9
20260508033105 57 94 0.0 0.0 0.00 0.00 0.00 76 1014.8
20260508032605 58 94 0.0 0.0 0.00 0.00 0.00 76 1014.9
20260508032105 58 94 0.0 0.0 0.00 0.00 0.00 75 1015.0
20260508031605 58 94 0.0 0.0 0.00 0.00 0.00 75 1014.8
20260508031106 58 94 0.0 0.0 0.00 0.00 0.00 75 1015.0
20260508030605 58 94 0.0 0.0 0.00 0.00 0.00 74 1015.0
20260508030105 59 94 0.0 0.0 0.00 0.00 0.00 74 1014.9
20260508025605 59 94 0.0 0.0 0.00 0.00 0.00 74 1015.1
20260508025105 59 94 0.0 0.0 0.00 0.00 0.00 73 1015.1
20260508024605 60 94 0.0 0.0 0.00 0.00 0.00 72 1015.0
20260508024106 60 94 0.0 0.0 0.00 0.00 0.00 73 1015.0
20260508023605 61 94 0.0 0.0 0.00 0.00 0.00 73 1015.1
20260508023105 61 94 0.0 0.0 0.00 0.00 0.00 73 1015.2
20260508022605 61 94 0.0 0.0 0.00 0.00 0.00 72 1015.2
20260508021606 62 94 0.0 0.0 0.00 0.00 0.00 70 1015.2
20260508021105 62 94 0.0 0.0 0.00 0.00 0.00 70 1015.2
20260508020605 62 94 0.0 0.0 0.00 0.00 0.00 69 1015.2
20260508020105 62 94 0.0 0.0 0.00 0.00 0.00 69 1015.2
20260508015606 62 94 0.0 0.0 0.00 0.00 0.00 67 1015.3
20260508015104 62 94 0.0 0.0 0.00 0.00 0.00 67 1015.5
20260508014605 62 94 0.0 0.0 0.00 0.00 0.00 67 1015.6
20260508014105 62 94 0.0 0.0 0.00 0.00 0.00 67 1015.7
20260508013605 62 94 0.0 0.0 0.00 0.00 0.00 67 1015.8
20260508013105 62 94 0.0 0.0 0.00 0.00 0.00 68 1015.8
20260508012105 63 94 0.0 0.0 0.00 0.00 0.00 67 1015.8
20260508011605 63 94 0.0 0.0 0.00 0.00 0.00 67 1015.8
20260508011105 63 94 0.0 0.0 0.00 0.00 0.00 66 1015.8
20260508010604 64 94 0.0 0.0 0.00 0.00 0.00 64 1015.9
20260508010105 64 94 0.0 0.0 0.00 0.00 0.00 62 1016.0
20260508005605 64 94 0.0 0.0 0.00 0.00 0.00 61 1016.0
20260508005105 64 94 0.0 0.0 0.00 0.00 0.00 62 1016.1
20260508004605 64 95 0.0 0.0 0.00 0.00 0.00 58 1016.1
20260508004105 64 142 0.0 1.0 0.00 0.00 0.00 57 1016.1
20260508003605 64 172 0.0 0.0 0.00 0.00 0.00 57 1016.1
20260508003105 64 172 0.0 0.0 0.00 0.00 0.00 57 1016.1
20260508002606 64 172 0.0 0.0 0.00 0.00 0.00 56 1016.1
20260508002104 65 172 0.0 0.0 0.00 0.00 0.00 58 1016.2
20260508001604 65 172 0.0 0.0 0.00 0.00 0.00 58 1016.2
20260508001105 65 172 0.0 1.0 0.00 0.00 0.00 57 1016.3
20260508000605 65 161 0.0 0.0 0.00 0.00 0.00 62 1016.2
20260508000105 65 186 0.0 1.0 0.00 0.00 0.00 61 1016.3
20260507235605 64 188 0.0 0.0 0.00 0.00 0.00 61 1016.4
20260507235105 64 188 0.0 0.0 0.00 0.00 0.00 64 1016.3
20260507234605 64 190 0.0 0.0 0.00 0.00 0.00 62 1016.3
20260507234105 64 196 0.0 0.0 0.00 0.00 0.00 63 1016.3
20260507233605 64 196 0.0 0.0 0.00 0.00 0.00 61 1016.4
20260507233105 64 199 0.0 0.0 0.00 0.00 0.00 60 1016.4
20260507232605 64 199 0.0 0.0 0.00 0.00 0.00 62 1016.5
20260507231605 64 199 0.0 0.0 0.00 0.00 0.00 62 1016.5
20260507231105 64 199 0.0 0.0 0.00 0.00 0.00 61 1016.6
20260507230605 64 65 0.0 0.0 0.00 0.00 0.00 60 1016.6
20260507230105 65 65 0.0 0.0 0.00 0.00 0.00 62 1016.7
20260507225605 65 65 0.0 0.0 0.00 0.00 0.00 62 1016.7
20260507224605 65 65 0.0 2.0 0.00 0.00 0.00 62 1016.9
20260507223605 64 84 0.0 0.0 0.00 0.00 0.00 61 1017.0
20260507222605 63 99 0.0 8.0 0.00 0.00 0.00 61 1017.0
20260507221605 63 294 0.0 1.0 0.00 0.00 0.00 61 1017.2
20260507221106 63 294 0.0 0.0 0.00 0.00 0.00 62 1017.3
20260507220605 64 298 1.0 8.0 0.00 0.00 0.00 61 1017.3
20260507220105 64 101 0.0 5.0 0.00 0.00 0.00 61 1017.3
20260507215604 63 52 0.0 0.0 0.00 0.00 0.00 58 1017.3
20260507215105 63 291 0.0 2.0 0.00 0.00 0.00 60 1017.6
20260507213605 63 57 0.0 1.0 0.00 0.00 0.00 59 1017.7
20260507213106 63 45 0.0 1.0 0.00 0.00 0.00 61 1017.8
20260507212605 63 42 1.0 3.0 0.00 0.00 0.00 62 1017.8
20260507212104 63 41 0.0 0.0 0.00 0.00 0.00 63 1017.9
20260507211605 62 41 0.0 2.0 0.00 0.00 0.00 63 1017.9
20260507211106 63 24 0.0 3.0 0.00 0.00 0.00 63 1018.0
20260507210605 62 331 0.0 6.0 0.00 0.00 0.00 64 1018.1
20260507210105 63 133 0.0 5.0 0.00 0.00 0.00 62 1018.2
20260507205605 63 74 0.0 2.0 0.00 0.00 0.00 63 1018.2
20260507205106 63 74 0.0 1.0 0.00 0.00 0.00 63 1018.2
20260507204605 63 74 1.0 2.0 0.00 0.00 0.00 67 1018.4
20260507204104 62 81 0.0 6.0 0.00 0.00 0.00 62 1018.5
20260507202605 63 299 1.0 6.0 0.00 0.00 0.00 63 1018.6
20260507202105 63 74 0.0 0.0 0.00 0.00 0.00 64 1018.6
20260507201605 61 74 1.0 5.0 0.00 0.00 0.00 64 1018.6
20260507201105 61 332 0.0 8.0 0.00 0.00 0.00 66 1018.7
20260507200605 61 297 2.0 8.0 0.00 0.00 0.00 64 1018.7
20260507200105 61 271 1.0 6.0 0.00 0.00 0.00 63 1018.7
20260507195605 61 73 0.0 5.0 0.00 0.00 0.00 64 1018.8
20260507195105 60 4 0.0 9.0 0.00 0.00 0.00 65 1018.9
20260507194605 60 326 2.0 8.0 0.00 0.00 0.00 65 1018.8
20260507194105 60 312 1.0 6.0 0.00 0.00 0.00 64 1018.8
20260507193104 60 37 1.0 5.0 0.00 0.00 0.00 66 1019.1
20260507192604 60 292 3.0 9.0 0.00 0.00 0.00 65 1019.1
20260507192105 61 50 0.0 0.0 0.00 0.00 0.00 63 1019.2
20260507191605 60 314 2.0 8.0 0.00 0.00 0.00 64 1019.2
20260507191105 62 58 1.0 5.0 0.00 0.00 0.00 65 1019.1
20260507190604 60 282 0.0 9.0 0.00 0.00 0.00 66 1019.1
20260507190105 62 91 0.0 1.0 0.00 0.00 0.00 67 1019.2
20260507185605 61 312 0.0 0.0 0.00 0.00 0.00 64 1019.2
20260507185105 62 89 0.0 0.0 0.00 0.00 0.00 68 1019.3
20260507184605 60 89 0.0 10.0 0.00 0.00 0.00 68 1019.2
20260507184105 61 300 0.0 10.0 0.00 0.00 0.00 65 1019.3
20260507183605 61 38 0.0 0.0 0.00 0.00 0.00 69 1019.3
20260507183105 60 31 0.0 1.0 0.00 0.00 0.00 65 1019.3
20260507182605 61 47 1.0 5.0 0.00 0.00 0.00 67 1019.4
20260507182105 61 52 0.0 1.0 0.00 0.00 0.00 70 1019.4
20260507181605 61 60 0.0 0.0 0.00 0.00 0.00 65 1019.4
20260507181105 60 60 0.0 3.0 0.00 0.00 0.00 69 1019.4
20260507180605 60 310 2.0 8.0 0.00 0.00 0.00 66 1019.5
20260507175605 59 97 0.0 3.0 0.00 0.00 0.00 69 1019.6
20260507175104 60 80 2.0 8.0 0.00 0.00 0.00 68 1019.6
20260507174605 59 77 0.0 5.0 0.00 0.00 0.00 71 1019.8
20260507174105 60 44 0.0 3.0 0.00 0.00 0.00 70 1019.8
20260507173604 59 54 0.0 0.0 0.00 0.00 0.00 72 1019.8
20260507173105 58 54 0.0 3.0 0.00 0.00 0.00 70 1019.8
20260507172105 58 94 1.0 6.0 0.00 0.00 0.00 70 1019.7
20260507171105 59 63 0.0 6.0 0.00 0.00 0.00 69 1019.8
20260507170605 59 58 0.0 0.0 0.00 0.00 0.00 69 1019.8